| time (UTC) | temp C | wind direction | speed KPH | gust KPH | rain 1hr cm | rain 24hr cm | rain mn cm | humidity % | barometer mb |
| 20260505172050 | 13 | 202 | 0.0 | 3.2 | 0.00 | 0.00 | 0.00 | 77 | 1008.1 |
| 20260505171545 | 14 | 176 | 0.0 | 4.8 | 0.00 | 0.00 | 0.00 | 75 | 1007.9 |
| 20260505171042 | 14 | 158 | 1.6 | 3.2 | 0.00 | 0.00 | 0.00 | 76 | 1008.1 |
| 20260505170539 | 13 | 222 | 0.0 | 1.6 | 0.00 | 0.00 | 0.00 | 77 | 1008.0 |
| 20260505170036 | 13 | 121 | 1.6 | 4.8 | 0.00 | 0.00 | 0.00 | 77 | 1007.8 |
| 20260505165531 | 13 | 146 | 0.0 | 1.6 | 0.00 | 0.00 | 0.00 | 79 | 1007.8 |
| 20260505165026 | 13 | 10 | 4.8 | 8.0 | 0.00 | 0.00 | 0.00 | 76 | 1007.8 |
| 20260505164523 | 13 | 195 | 0.0 | 3.2 | 0.00 | 0.00 | 0.00 | 78 | 1007.9 |
| 20260505164021 | 13 | 186 | 0.0 | 1.6 | 0.00 | 0.00 | 0.00 | 79 | 1007.8 |
| 20260505163519 | 13 | 164 | 1.6 | 4.8 | 0.00 | 0.00 | 0.00 | 79 | 1007.8 |
| 20260505163016 | 13 | 184 | 0.0 | 3.2 | 0.00 | 0.00 | 0.00 | 79 | 1007.7 |
| 20260505162509 | 13 | 133 | 0.0 | 3.2 | 0.00 | 0.00 | 0.00 | 80 | 1007.8 |
| 20260505162006 | 12 | 200 | 0.0 | 1.6 | 0.00 | 0.00 | 0.00 | 84 | 1007.9 |
| 20260505161502 | 13 | 215 | 1.6 | 3.2 | 0.00 | 0.00 | 0.00 | 81 | 1007.9 |
| 20260505161000 | 12 | 241 | 0.0 | 1.6 | 0.00 | 0.00 | 0.00 | 81 | 1007.7 |
| 20260505160458 | 12 | 198 | 0.0 | 0.0 | 0.00 | 0.00 | 0.00 | 84 | 1007.8 |
| 20260505152934 | 11 | 200 | 0.0 | 0.0 | 0.00 | 0.00 | 0.00 | 92 | 1007.8 |
| 20260505152426 | 11 | 204 | 0.0 | 0.0 | 0.00 | 0.00 | 0.00 | 92 | 1007.7 |
| 20260505151925 | 10 | 204 | 0.0 | 0.0 | 0.00 | 0.00 | 0.00 | 93 | 1007.6 |
| 20260505151422 | 10 | 200 | 0.0 | 0.0 | 0.00 | 0.00 | 0.00 | 92 | 1007.7 |
| 20260505150919 | 10 | 208 | 0.0 | 0.0 | 0.00 | 0.00 | 0.00 | 92 | 1007.3 |
| 20260505150416 | 10 | 205 | 0.0 | 0.0 | 0.00 | 0.00 | 0.00 | 92 | 1007.3 |
| 20260505140340 | 10 | 204 | 0.0 | 0.0 | 0.00 | 0.00 | 0.00 | 95 | 1007.1 |
| 20260505130303 | 9 | 195 | 0.0 | 0.0 | 0.00 | 0.00 | 0.00 | 96 | 1006.7 |
| 20260505124754 | 9 | 185 | 0.0 | 0.0 | 0.00 | 0.00 | 0.00 | 96 | 1006.8 |
| 20260505124251 | 10 | 185 | 0.0 | 0.0 | 0.00 | 0.00 | 0.00 | 96 | 1006.7 |
| 20260505123746 | 9 | 185 | 0.0 | 0.0 | 0.00 | 0.00 | 0.00 | 96 | 1006.6 |
| 20260505123243 | 9 | 184 | 0.0 | 0.0 | 0.00 | 0.00 | 0.00 | 96 | 1006.9 |
| 20260505122740 | 9 | 191 | 0.0 | 0.0 | 0.00 | 0.00 | 0.00 | 96 | 1006.7 |
| 20260505122237 | 9 | 191 | 0.0 | 0.0 | 0.00 | 0.00 | 0.00 | 96 | 1007.0 |
| 20260505121734 | 10 | 191 | 0.0 | 0.0 | 0.00 | 0.00 | 0.00 | 96 | 1006.7 |
| 20260505121230 | 10 | 191 | 0.0 | 0.0 | 0.00 | 0.00 | 0.00 | 96 | 1006.9 |
| 20260505120726 | 10 | 191 | 0.0 | 0.0 | 0.00 | 0.00 | 0.00 | 96 | 1006.9 |
| 20260505120223 | 10 | 191 | 0.0 | 0.0 | 0.00 | 0.00 | 0.00 | 96 | 1006.9 |
| 20260505115721 | 10 | 191 | 0.0 | 0.0 | 0.00 | 0.00 | 0.00 | 96 | 1006.9 |
| 20260505115219 | 10 | 196 | 0.0 | 0.0 | 0.00 | 0.00 | 0.00 | 96 | 1007.1 |
| 20260505114716 | 10 | 198 | 0.0 | 0.0 | 0.00 | 0.00 | 0.00 | 96 | 1006.8 |
| 20260505114212 | 10 | 198 | 0.0 | 0.0 | 0.00 | 0.00 | 0.00 | 96 | 1007.0 |
| 20260505113709 | 10 | 198 | 0.0 | 0.0 | 0.00 | 0.00 | 0.00 | 96 | 1007.0 |
| 20260505113206 | 10 | 198 | 0.0 | 0.0 | 0.00 | 0.00 | 0.00 | 96 | 1007.0 |
| 20260505112702 | 10 | 198 | 0.0 | 0.0 | 0.00 | 0.00 | 0.00 | 96 | 1006.9 |
| 20260505112200 | 10 | 198 | 0.0 | 0.0 | 0.00 | 0.00 | 0.00 | 96 | 1006.9 |
| 20260505111659 | 10 | 203 | 0.0 | 0.0 | 0.00 | 0.00 | 0.00 | 96 | 1006.8 |
| 20260505111155 | 10 | 209 | 0.0 | 0.0 | 0.00 | 0.00 | 0.00 | 96 | 1006.7 |
| 20260505110652 | 10 | 189 | 0.0 | 0.0 | 0.00 | 0.00 | 0.00 | 96 | 1006.8 |
| 20260505110149 | 10 | 189 | 0.0 | 0.0 | 0.00 | 0.00 | 0.00 | 96 | 1007.0 |
| 20260505102125 | 10 | 191 | 0.0 | 0.0 | 0.00 | 0.00 | 0.00 | 96 | 1006.8 |
| 20260505101624 | 10 | 191 | 0.0 | 0.0 | 0.00 | 0.00 | 0.00 | 95 | 1006.9 |
| 20260505101119 | 10 | 188 | 0.0 | 0.0 | 0.00 | 0.00 | 0.00 | 95 | 1006.9 |
| 20260505100616 | 10 | 193 | 0.0 | 0.0 | 0.00 | 0.00 | 0.00 | 95 | 1006.8 |
| 20260505100113 | 10 | 185 | 0.0 | 0.0 | 0.00 | 0.00 | 0.00 | 95 | 1007.1 |
| 20260505095609 | 10 | 186 | 0.0 | 0.0 | 0.00 | 0.00 | 0.00 | 95 | 1007.0 |
| 20260505095106 | 10 | 186 | 0.0 | 0.0 | 0.00 | 0.00 | 0.00 | 94 | 1007.0 |
| 20260505094602 | 10 | 186 | 0.0 | 0.0 | 0.00 | 0.00 | 0.00 | 94 | 1007.0 |
| 20260505094058 | 10 | 186 | 0.0 | 0.0 | 0.00 | 0.00 | 0.00 | 95 | 1007.2 |
| 20260505093554 | 10 | 186 | 0.0 | 0.0 | 0.00 | 0.00 | 0.00 | 95 | 1006.9 |
| 20260505093052 | 10 | 186 | 0.0 | 0.0 | 0.00 | 0.00 | 0.00 | 95 | 1007.1 |
| 20260505092549 | 10 | 186 | 0.0 | 0.0 | 0.00 | 0.00 | 0.00 | 95 | 1007.0 |
| 20260505092048 | 10 | 186 | 0.0 | 0.0 | 0.00 | 0.00 | 0.00 | 95 | 1007.2 |
| 20260505091544 | 10 | 186 | 0.0 | 0.0 | 0.00 | 0.00 | 0.00 | 95 | 1007.3 |
| 20260505091043 | 10 | 185 | 0.0 | 0.0 | 0.00 | 0.00 | 0.00 | 95 | 1007.4 |
| 20260505090540 | 10 | 195 | 0.0 | 0.0 | 0.00 | 0.00 | 0.00 | 95 | 1007.4 |
| 20260505090038 | 10 | 195 | 0.0 | 0.0 | 0.00 | 0.00 | 0.00 | 95 | 1007.3 |
| 20260505085536 | 10 | 195 | 0.0 | 0.0 | 0.00 | 0.00 | 0.00 | 95 | 1007.4 |
| 20260505085034 | 10 | 195 | 0.0 | 0.0 | 0.00 | 0.00 | 0.00 | 95 | 1007.6 |
| 20260505084531 | 10 | 195 | 0.0 | 0.0 | 0.00 | 0.00 | 0.00 | 95 | 1007.6 |
| 20260505084029 | 10 | 195 | 0.0 | 0.0 | 0.00 | 0.00 | 0.00 | 95 | 1007.4 |
| 20260505083526 | 10 | 202 | 0.0 | 0.0 | 0.00 | 0.00 | 0.00 | 95 | 1007.5 |
| 20260505083023 | 10 | 202 | 0.0 | 0.0 | 0.00 | 0.00 | 0.00 | 95 | 1007.4 |
| 20260505082518 | 10 | 204 | 0.0 | 0.0 | 0.00 | 0.00 | 0.00 | 95 | 1007.5 |
| 20260505082015 | 10 | 202 | 0.0 | 0.0 | 0.00 | 0.00 | 0.00 | 95 | 1007.5 |
| 20260505081512 | 10 | 202 | 0.0 | 0.0 | 0.00 | 0.00 | 0.00 | 95 | 1007.7 |
| 20260505081009 | 10 | 203 | 0.0 | 1.6 | 0.00 | 0.00 | 0.00 | 95 | 1007.7 |
| 20260505080505 | 10 | 199 | 0.0 | 0.0 | 0.00 | 0.00 | 0.00 | 96 | 1007.7 |
| 20260505080001 | 10 | 199 | 0.0 | 0.0 | 0.00 | 0.00 | 0.00 | 96 | 1007.7 |
| 20260505075458 | 10 | 193 | 0.0 | 0.0 | 0.00 | 0.00 | 0.00 | 96 | 1007.8 |
| 20260505074955 | 10 | 193 | 0.0 | 0.0 | 0.00 | 0.00 | 0.00 | 96 | 1007.7 |
| 20260505074452 | 9 | 193 | 0.0 | 0.0 | 0.00 | 0.00 | 0.00 | 95 | 1007.5 |
| 20260505073949 | 9 | 193 | 0.0 | 0.0 | 0.00 | 0.00 | 0.00 | 95 | 1007.5 |
| 20260505073447 | 10 | 193 | 0.0 | 0.0 | 0.00 | 0.00 | 0.00 | 95 | 1007.7 |
| 20260505072944 | 10 | 193 | 0.0 | 0.0 | 0.00 | 0.00 | 0.00 | 95 | 1007.4 |
| 20260505072440 | 10 | 193 | 0.0 | 0.0 | 0.00 | 0.00 | 0.00 | 95 | 1007.5 |
| 20260505071936 | 10 | 193 | 0.0 | 0.0 | 0.00 | 0.00 | 0.00 | 95 | 1007.4 |
| 20260505071432 | 10 | 193 | 0.0 | 0.0 | 0.00 | 0.00 | 0.00 | 94 | 1007.2 |
| 20260505070931 | 10 | 193 | 0.0 | 0.0 | 0.00 | 0.00 | 0.00 | 94 | 1007.4 |
| 20260505070427 | 10 | 193 | 0.0 | 0.0 | 0.00 | 0.00 | 0.00 | 94 | 1007.4 |
| 20260505065922 | 10 | 193 | 0.0 | 0.0 | 0.00 | 0.00 | 0.00 | 94 | 1007.4 |
| 20260505065419 | 10 | 193 | 0.0 | 0.0 | 0.00 | 0.00 | 0.00 | 94 | 1007.4 |
| 20260505064916 | 10 | 192 | 0.0 | 0.0 | 0.00 | 0.00 | 0.00 | 93 | 1007.3 |
| 20260505064413 | 10 | 192 | 0.0 | 0.0 | 0.00 | 0.00 | 0.00 | 93 | 1007.3 |
| 20260505063912 | 10 | 195 | 0.0 | 0.0 | 0.00 | 0.00 | 0.00 | 93 | 1007.2 |
| 20260505063407 | 10 | 205 | 0.0 | 0.0 | 0.00 | 0.00 | 0.00 | 93 | 1007.3 |
| 20260505062904 | 10 | 205 | 0.0 | 0.0 | 0.00 | 0.00 | 0.00 | 92 | 1007.1 |
| 20260505062401 | 10 | 205 | 0.0 | 0.0 | 0.00 | 0.00 | 0.00 | 92 | 1007.4 |
| 20260505061858 | 10 | 205 | 0.0 | 0.0 | 0.00 | 0.00 | 0.00 | 91 | 1007.2 |
| 20260505061356 | 10 | 205 | 0.0 | 0.0 | 0.00 | 0.00 | 0.00 | 91 | 1007.0 |
| 20260505060854 | 10 | 206 | 0.0 | 0.0 | 0.00 | 0.00 | 0.00 | 90 | 1007.1 |
| 20260505060350 | 11 | 205 | 0.0 | 0.0 | 0.00 | 0.00 | 0.00 | 90 | 1007.4 |
| 20260505055846 | 11 | 188 | 0.0 | 0.0 | 0.00 | 0.00 | 0.00 | 89 | 1007.4 |
| 20260505055342 | 11 | 188 | 0.0 | 0.0 | 0.00 | 0.00 | 0.00 | 89 | 1007.3 |
| 20260505054840 | 11 | 195 | 0.0 | 0.0 | 0.00 | 0.00 | 0.00 | 88 | 1007.2 |
| 20260505054337 | 11 | 196 | 0.0 | 0.0 | 0.00 | 0.00 | 0.00 | 88 | 1007.4 |
| 20260505053835 | 11 | 149 | 0.0 | 1.6 | 0.00 | 0.00 | 0.00 | 87 | 1007.5 |
| 20260505053332 | 11 | 198 | 0.0 | 0.0 | 0.00 | 0.00 | 0.00 | 87 | 1007.4 |
| 20260505052828 | 11 | 199 | 0.0 | 0.0 | 0.00 | 0.00 | 0.00 | 86 | 1007.8 |
| 20260505052325 | 11 | 198 | 0.0 | 0.0 | 0.00 | 0.00 | 0.00 | 86 | 1007.8 |
| 20260505051823 | 11 | 213 | 0.0 | 0.0 | 0.00 | 0.00 | 0.00 | 85 | 1007.7 |
| 20260505051320 | 11 | 218 | 0.0 | 1.6 | 0.00 | 0.00 | 0.00 | 85 | 1007.6 |
| 20260505050818 | 11 | 208 | 0.0 | 0.0 | 0.00 | 0.00 | 0.00 | 85 | 1007.7 |
| 20260505050316 | 11 | 208 | 4.8 | 8.0 | 0.00 | 0.00 | 0.00 | 85 | 1007.6 |
| 20260505041746 | 11 | 192 | 3.2 | 3.2 | 0.00 | 0.00 | 0.00 | 81 | 1007.3 |
| 20260505041243 | 11 | 212 | 0.0 | 1.6 | 0.00 | 0.00 | 0.00 | 83 | 1007.3 |
| 20260505040740 | 11 | 191 | 1.6 | 1.6 | 0.00 | 0.00 | 0.00 | 83 | 1007.4 |
| 20260505040238 | 11 | 198 | 0.0 | 0.0 | 0.00 | 0.00 | 0.00 | 83 | 1007.0 |
| 20260505035735 | 11 | 203 | 0.0 | 0.0 | 0.00 | 0.00 | 0.00 | 82 | 1007.0 |
| 20260505035230 | 11 | 188 | 0.0 | 0.0 | 0.00 | 0.00 | 0.00 | 82 | 1006.9 |
| 20260505034728 | 11 | 204 | 0.0 | 0.0 | 0.00 | 0.00 | 0.00 | 81 | 1006.8 |
| 20260505034224 | 12 | 182 | 0.0 | 0.0 | 0.00 | 0.00 | 0.00 | 80 | 1006.7 |
| 20260505033721 | 12 | 181 | 0.0 | 0.0 | 0.00 | 0.00 | 0.00 | 80 | 1006.6 |
| 20260505033219 | 12 | 181 | 0.0 | 0.0 | 0.00 | 0.00 | 0.00 | 77 | 1006.7 |
| 20260505032717 | 12 | 182 | 0.0 | 3.2 | 0.00 | 0.00 | 0.00 | 76 | 1006.5 |
| 20260505032212 | 12 | 200 | 0.0 | 1.6 | 0.00 | 0.00 | 0.00 | 75 | 1006.5 |
| 20260505031710 | 12 | 212 | 1.6 | 3.2 | 0.00 | 0.00 | 0.00 | 77 | 1006.6 |
| 20260505031206 | 12 | 189 | 0.0 | 0.0 | 0.00 | 0.00 | 0.00 | 75 | 1006.7 |
| 20260505030703 | 13 | 186 | 0.0 | 0.0 | 0.00 | 0.00 | 0.00 | 76 | 1006.5 |
| 20260505030159 | 13 | 185 | 0.0 | 0.0 | 0.00 | 0.00 | 0.00 | 75 | 1006.8 |
| 20260505025655 | 13 | 208 | 0.0 | 0.0 | 0.00 | 0.00 | 0.00 | 74 | 1006.6 |
| 20260505025154 | 13 | 195 | 0.0 | 1.6 | 0.00 | 0.00 | 0.00 | 76 | 1006.5 |
| 20260505024651 | 13 | 183 | 1.6 | 3.2 | 0.00 | 0.00 | 0.00 | 74 | 1006.5 |
| 20260505024148 | 13 | 196 | 0.0 | 1.6 | 0.00 | 0.00 | 0.00 | 73 | 1006.5 |
| 20260505023646 | 14 | 212 | 3.2 | 4.8 | 0.00 | 0.00 | 0.00 | 72 | 1006.5 |
| 20260505023143 | 14 | 207 | 0.0 | 0.0 | 0.00 | 0.00 | 0.00 | 71 | 1006.3 |
| 20260505022640 | 14 | 209 | 0.0 | 1.6 | 0.00 | 0.00 | 0.00 | 72 | 1006.6 |
| 20260505022137 | 14 | 193 | 0.0 | 1.6 | 0.00 | 0.00 | 0.00 | 70 | 1006.5 |
| 20260505021633 | 14 | 200 | 0.0 | 1.6 | 0.00 | 0.00 | 0.00 | 70 | 1006.2 |
| 20260505021130 | 15 | 355 | 1.6 | 3.2 | 0.00 | 0.00 | 0.00 | 69 | 1006.2 |
| 20260505020626 | 15 | 184 | 0.0 | 1.6 | 0.00 | 0.00 | 0.00 | 68 | 1006.2 |
| 20260505020122 | 15 | 199 | 0.0 | 0.0 | 0.00 | 0.00 | 0.00 | 69 | 1006.3 |
| 20260505015619 | 15 | 207 | 0.0 | 1.6 | 0.00 | 0.00 | 0.00 | 67 | 1006.2 |
| 20260505015116 | 15 | 188 | 1.6 | 1.6 | 0.00 | 0.00 | 0.00 | 71 | 1006.1 |
| 20260505014613 | 15 | 208 | 0.0 | 1.6 | 0.00 | 0.00 | 0.00 | 66 | 1006.3 |
| 20260505014110 | 16 | 205 | 0.0 | 1.6 | 0.00 | 0.00 | 0.00 | 63 | 1006.2 |
| 20260505013607 | 16 | 208 | 0.0 | 0.0 | 0.00 | 0.00 | 0.00 | 66 | 1006.1 |
| 20260505013104 | 16 | 187 | 0.0 | 3.2 | 0.00 | 0.00 | 0.00 | 63 | 1006.0 |
| 20260505012602 | 17 | 219 | 4.8 | 9.7 | 0.00 | 0.00 | 0.00 | 63 | 1006.3 |
| 20260505012059 | 16 | 145 | 1.6 | 1.6 | 0.00 | 0.00 | 0.00 | 61 | 1006.3 |
| 20260505011554 | 16 | 214 | 0.0 | 4.8 | 0.00 | 0.00 | 0.00 | 64 | 1006.5 |
| 20260505011052 | 16 | 188 | 1.6 | 8.0 | 0.00 | 0.00 | 0.00 | 62 | 1006.5 |
| 20260505010547 | 16 | 235 | 4.8 | 4.8 | 0.00 | 0.00 | 0.00 | 63 | 1006.7 |
| 20260505010044 | 16 | 231 | 4.8 | 4.8 | 0.00 | 0.00 | 0.00 | 63 | 1006.5 |
| 20260505005540 | 16 | 225 | 3.2 | 4.8 | 0.00 | 0.00 | 0.00 | 65 | 1006.6 |
| 20260505005038 | 16 | 225 | 1.6 | 9.7 | 0.00 | 0.00 | 0.00 | 63 | 1006.7 |
| 20260505004535 | 16 | 220 | 1.6 | 8.0 | 0.00 | 0.00 | 0.00 | 64 | 1006.7 |
| 20260505004032 | 16 | 192 | 0.0 | 1.6 | 0.00 | 0.00 | 0.00 | 66 | 1006.6 |
| 20260505003529 | 16 | 251 | 8.0 | 11.3 | 0.00 | 0.00 | 0.00 | 65 | 1006.7 |
| 20260505003026 | 16 | 149 | 3.2 | 4.8 | 0.00 | 0.00 | 0.00 | 63 | 1006.6 |
| 20260505002527 | 16 | 200 | 4.8 | 4.8 | 0.00 | 0.00 | 0.00 | 67 | 1006.8 |
| 20260505002026 | 16 | 206 | 0.0 | 4.8 | 0.00 | 0.00 | 0.00 | 63 | 1006.6 |
| 20260505001523 | 16 | 224 | 1.6 | 4.8 | 0.00 | 0.00 | 0.00 | 66 | 1006.7 |
| 20260505001020 | 16 | 348 | 1.6 | 3.2 | 0.00 | 0.00 | 0.00 | 66 | 1006.7 |
| 20260505000517 | 16 | 188 | 1.6 | 3.2 | 0.00 | 0.00 | 0.00 | 66 | 1006.5 |
| 20260505000015 | 16 | 224 | 1.6 | 4.8 | 0.00 | 0.00 | 0.00 | 66 | 1006.3 |
| 20260504235511 | 16 | 210 | 0.0 | 4.8 | 0.00 | 0.00 | 0.00 | 66 | 1006.5 |
| 20260504235007 | 16 | 337 | 1.6 | 9.7 | 0.00 | 0.00 | 0.00 | 65 | 1006.7 |
| 20260504234505 | 16 | 185 | 1.6 | 9.7 | 0.00 | 0.00 | 0.00 | 65 | 1006.7 |
| 20260504234002 | 16 | 4 | 6.4 | 8.0 | 0.00 | 0.00 | 0.00 | 64 | 1006.6 |
| 20260504233457 | 16 | 19 | 1.6 | 9.7 | 0.00 | 0.00 | 0.00 | 66 | 1006.5 |
| 20260504232954 | 15 | 199 | 1.6 | 8.0 | 0.00 | 0.00 | 0.00 | 67 | 1006.9 |
| 20260504232451 | 15 | 203 | 1.6 | 4.8 | 0.00 | 0.00 | 0.00 | 67 | 1006.7 |
| 20260504231949 | 16 | 17 | 4.8 | 8.0 | 0.00 | 0.00 | 0.00 | 66 | 1006.8 |
| 20260504231445 | 16 | 209 | 0.0 | 4.8 | 0.00 | 0.00 | 0.00 | 64 | 1006.7 |
| 20260504230941 | 16 | 161 | 3.2 | 4.8 | 0.00 | 0.00 | 0.00 | 67 | 1006.9 |
| 20260504230438 | 15 | 169 | 0.0 | 4.8 | 0.00 | 0.00 | 0.00 | 67 | 1006.7 |
| 20260504225937 | 16 | 219 | 1.6 | 4.8 | 0.00 | 0.00 | 0.00 | 65 | 1006.8 |
| 20260504225433 | 16 | 196 | 0.0 | 3.2 | 0.00 | 0.00 | 0.00 | 67 | 1006.7 |
| 20260504224931 | 16 | 174 | 6.4 | 8.0 | 0.00 | 0.00 | 0.00 | 63 | 1006.8 |
| 20260504224427 | 16 | 184 | 1.6 | 4.8 | 0.00 | 0.00 | 0.00 | 66 | 1006.6 |
| 20260504223925 | 17 | 255 | 1.6 | 8.0 | 0.00 | 0.00 | 0.00 | 63 | 1006.7 |
| 20260504223420 | 17 | 201 | 1.6 | 8.0 | 0.00 | 0.00 | 0.00 | 62 | 1006.8 |
| 20260504222916 | 17 | 264 | 1.6 | 8.0 | 0.00 | 0.00 | 0.00 | 61 | 1006.9 |
| 20260504222413 | 16 | 200 | 0.0 | 4.8 | 0.00 | 0.00 | 0.00 | 63 | 1006.9 |
| 20260504221911 | 16 | 133 | 1.6 | 3.2 | 0.00 | 0.00 | 0.00 | 63 | 1006.9 |
| 20260504221408 | 16 | 253 | 1.6 | 1.6 | 0.00 | 0.00 | 0.00 | 64 | 1007.2 |
| 20260504220905 | 16 | 196 | 0.0 | 1.6 | 0.00 | 0.00 | 0.00 | 67 | 1007.1 |
| 20260504220401 | 15 | 173 | 1.6 | 3.2 | 0.00 | 0.00 | 0.00 | 65 | 1007.1 |
| 20260504215859 | 15 | 175 | 0.0 | 1.6 | 0.00 | 0.00 | 0.00 | 66 | 1007.1 |
| 20260504215355 | 15 | 256 | 6.4 | 11.3 | 0.00 | 0.00 | 0.00 | 65 | 1007.2 |
| 20260504214851 | 16 | 239 | 1.6 | 4.8 | 0.00 | 0.00 | 0.00 | 64 | 1007.2 |
| 20260504214348 | 16 | 209 | 0.0 | 8.0 | 0.00 | 0.00 | 0.00 | 64 | 1007.1 |
| 20260504213845 | 16 | 202 | 0.0 | 3.2 | 0.00 | 0.00 | 0.00 | 64 | 1007.2 |
| 20260504213341 | 17 | 302 | 3.2 | 9.7 | 0.00 | 0.00 | 0.00 | 62 | 1007.4 |
| 20260504212838 | 16 | 190 | 4.8 | 4.8 | 0.00 | 0.00 | 0.00 | 64 | 1007.4 |
| 20260504212334 | 16 | 277 | 4.8 | 4.8 | 0.00 | 0.00 | 0.00 | 63 | 1007.3 |
| 20260504211832 | 16 | 198 | 0.0 | 8.0 | 0.00 | 0.00 | 0.00 | 63 | 1007.4 |
| 20260504211328 | 16 | 210 | 0.0 | 1.6 | 0.00 | 0.00 | 0.00 | 65 | 1007.5 |
| 20260504210826 | 16 | 243 | 4.8 | 8.0 | 0.00 | 0.00 | 0.00 | 62 | 1007.3 |
| 20260504210322 | 16 | 215 | 0.0 | 1.6 | 0.00 | 0.00 | 0.00 | 62 | 1007.5 |
| 20260504205820 | 16 | 189 | 0.0 | 1.6 | 0.00 | 0.00 | 0.00 | 63 | 1007.5 |
| 20260504205318 | 15 | 178 | 0.0 | 1.6 | 0.00 | 0.00 | 0.00 | 63 | 1007.5 |
| 20260504204815 | 15 | 271 | 3.2 | 4.8 | 0.00 | 0.00 | 0.00 | 64 | 1007.6 |
| 20260504204313 | 15 | 229 | 1.6 | 1.6 | 0.00 | 0.00 | 0.00 | 65 | 1007.6 |
| 20260504203813 | 15 | 230 | 0.0 | 4.8 | 0.00 | 0.00 | 0.00 | 66 | 1007.4 |
| 20260504203309 | 15 | 274 | 1.6 | 3.2 | 0.00 | 0.00 | 0.00 | 67 | 1007.5 |
| 20260504202804 | 15 | 153 | 1.6 | 3.2 | 0.00 | 0.00 | 0.00 | 66 | 1007.6 |
| 20260504202304 | 15 | 206 | 0.0 | 0.0 | 0.00 | 0.00 | 0.00 | 66 | 1007.5 |
| 20260504201759 | 15 | 210 | 1.6 | 8.0 | 0.00 | 0.00 | 0.00 | 69 | 1007.5 |
| 20260504201256 | 15 | 212 | 0.0 | 3.2 | 0.00 | 0.00 | 0.00 | 68 | 1007.5 |
| 20260504200754 | 15 | 299 | 1.6 | 1.6 | 0.00 | 0.00 | 0.00 | 68 | 1007.7 |
| 20260504200249 | 15 | 211 | 1.6 | 4.8 | 0.00 | 0.00 | 0.00 | 68 | 1007.6 |
| 20260504195746 | 15 | 200 | 0.0 | 3.2 | 0.00 | 0.00 | 0.00 | 69 | 1007.6 |
| 20260504195242 | 15 | 194 | 0.0 | 0.0 | 0.00 | 0.00 | 0.00 | 68 | 1007.5 |
| 20260504194739 | 15 | 185 | 0.0 | 1.6 | 0.00 | 0.00 | 0.00 | 67 | 1007.7 |
| 20260504194235 | 15 | 188 | 0.0 | 0.0 | 0.00 | 0.00 | 0.00 | 73 | 1007.6 |
| 20260504193732 | 15 | 202 | 0.0 | 4.8 | 0.00 | 0.00 | 0.00 | 68 | 1007.7 |
| 20260504193229 | 15 | 203 | 1.6 | 1.6 | 0.00 | 0.00 | 0.00 | 70 | 1007.5 |
| 20260504192728 | 15 | 272 | 0.0 | 4.8 | 0.00 | 0.00 | 0.00 | 68 | 1007.6 |
| 20260504192225 | 15 | 272 | 0.0 | 4.8 | 0.00 | 0.00 | 0.00 | 67 | 1007.6 |
| 20260504191724 | 15 | 187 | 1.6 | 3.2 | 0.00 | 0.00 | 0.00 | 69 | 1007.5 |
| 20260504191220 | 15 | 199 | 1.6 | 1.6 | 0.00 | 0.00 | 0.00 | 68 | 1007.7 |
| 20260504190715 | 15 | 310 | 3.2 | 4.8 | 0.00 | 0.00 | 0.00 | 68 | 1007.5 |
| 20260504190212 | 15 | 152 | 1.6 | 3.2 | 0.00 | 0.00 | 0.00 | 68 | 1007.6 |
| 20260504185709 | 15 | 187 | 0.0 | 1.6 | 0.00 | 0.00 | 0.00 | 67 | 1007.5 |
| 20260504185205 | 15 | 173 | 1.6 | 3.2 | 0.00 | 0.00 | 0.00 | 67 | 1007.7 |
| 20260504184702 | 15 | 254 | 0.0 | 3.2 | 0.00 | 0.00 | 0.00 | 69 | 1007.9 |
| 20260504184157 | 15 | 282 | 1.6 | 3.2 | 0.00 | 0.00 | 0.00 | 67 | 1007.7 |
| 20260504183654 | 16 | 202 | 0.0 | 1.6 | 0.00 | 0.00 | 0.00 | 67 | 1007.7 |
| 20260504183151 | 16 | 194 | 0.0 | 1.6 | 0.00 | 0.00 | 0.00 | 64 | 1007.5 |
| 20260504182649 | 16 | 241 | 0.0 | 4.8 | 0.00 | 0.00 | 0.00 | 67 | 1007.7 |
| 20260504182146 | 16 | 203 | 0.0 | 3.2 | 0.00 | 0.00 | 0.00 | 64 | 1007.4 |
| 20260504181643 | 15 | 184 | 1.6 | 3.2 | 0.00 | 0.00 | 0.00 | 65 | 1007.4 |
| 20260504181141 | 16 | 238 | 3.2 | 4.8 | 0.00 | 0.00 | 0.00 | 63 | 1007.4 |
| 20260504180640 | 16 | 227 | 1.6 | 8.0 | 0.00 | 0.00 | 0.00 | 64 | 1007.5 |
| 20260504180138 | 16 | 202 | 1.6 | 4.8 | 0.00 | 0.00 | 0.00 | 64 | 1007.4 |
| 20260504175635 | 16 | 114 | 3.2 | 4.8 | 0.00 | 0.00 | 0.00 | 62 | 1007.3 |
| 20260504175131 | 15 | 190 | 0.0 | 1.6 | 0.00 | 0.00 | 0.00 | 65 | 1007.2 |
| 20260504174630 | 15 | 167 | 0.0 | 1.6 | 0.00 | 0.00 | 0.00 | 68 | 1007.2 |
| 20260504174126 | 15 | 249 | 3.2 | 4.8 | 0.00 | 0.00 | 0.00 | 68 | 1007.2 |
| 20260504173624 | 15 | 216 | 0.0 | 3.2 | 0.00 | 0.00 | 0.00 | 67 | 1007.2 |
| 20260504173121 | 15 | 190 | 0.0 | 3.2 | 0.00 | 0.00 | 0.00 | 71 | 1007.2 |
| 20260504172617 | 15 | 189 | 0.0 | 3.2 | 0.00 | 0.00 | 0.00 | 69 | 1007.0 |